User: anonymous   Login
Location: Unspecified
(0.0000°N, 0.0000°E)
Time: 13:01:56
(UTC+00:00)
Language:

SES 6 - Orbit

View from above orbital plane
View from above orbital plane
View from above satellite
View from above satellite

Ground track
Ground track

The orbit data is extracted from the following two-line orbital elements,

1 39172U 13026A   14352.79466508 -.00000248  00000-0  00000+0 0  4016
2 39172 000.0300 304.2502 0001661 327.6005 061.0537 01.00268249  5649
Epoch (UTC): 18 December 2014 19:04:19
Eccentricity: 0.0001661
inclination: 0.0300°
perigee height: 35780 km
apogee height: 35794 km
right ascension of ascending node: 304.2502°
argument of perigee: 327.6005°
revolutions per day: 1.00268249
mean anomaly at epoch: 61.0537°
orbit number at epoch: 564

The dashed part of the orbit path shows where the satellite is in the earth's shadow,  

DLR